Helicity
54 80 116 196 203 266 277 292 293 127 105 94 69 74 47 124 83 62 20 83 230 183 130 93 60 59 73 67 49 87 103 99 72 54 39 31 25 21 20 13 8 5 9 12 19 27 31 31 41
58 69 150 221 276 319 263 227 228 170 148 163 130 72 71 101 127 53 68 65 201 188 135 91 55 96 85 74 100 103 94 79 66 53 43 35 29 24 18 14 10 7 11 14 20 27 30 38 45
66 92 168 229 252 249 219 123 127 138 79 63 85 59 67 92 107 51 110 123 211 186 146 83 106 104 117 98 95 92 84 70 57 50 45 39 30 25 21 16 13 13 13 16 21 27 33 43 45
114 139 217 292 198 163 188 209 111 143 103 86 41 67 86 76 21 90 166 163 219 204 166 139 132 120 123 106 89 85 75 64 56 51 44 38 32 29 25 20 17 16 17 20 24 30 38 46 48
111 163 258 248 195 195 127 69 79 88 35 172 134 70 62 47 68 143 190 193 215 203 190 186 151 131 116 97 89 79 73 62 58 51 48 37 37 31 27 24 20 21 22 23 29 40 46 43 43
147 166 261 215 149 131 96 92 22 76 2 77 108 90 15 28 52 133 208 206 205 190 203 214 159 150 103 97 82 79 75 62 61 51 51 43 40 36 33 32 33 30 25 26 34 41 38 34 39
149 186 207 174 93 71 52 117 72 -6 81 48 81 103 61 32 44 142 223 216 177 188 235 242 190 155 102 97 87 77 70 67 62 56 56 54 50 45 45 44 42 40 39 36 37 36 38 40 58
124 154 173 148 102 27 42 82 58 49 -6 108 -5 72 42 78 64 207 231 193 195 234 259 268 229 176 154 114 95 82 89 82 76 75 81 78 76 67 59 54 47 44 43 46 46 44 43 50 66
99 177 130 142 98 51 74 109 19 14 -10 85 70 40 73 30 142 208 252 202 186 234 264 260 233 188 173 150 125 110 105 103 102 103 102 102 88 71 63 53 52 53 47 48 51 53 57 63 51
144 164 87 83 91 28 33 29 -19 -17 48 71 102 141 32 -15 165 194 201 170 170 238 239 238 209 183 185 166 178 156 145 150 127 113 105 91 79 68 70 79 73 68 64 56 56 62 60 50 25
129 156 89 54 48 50 12 26 21 10 37 62 122 202 67 10 70 188 195 207 193 283 263 224 225 206 211 189 192 179 155 159 136 106 93 89 86 84 72 77 68 64 59 46 46 49 40 37 20
159 115 106 42 58 34 1 33 -2 -8 38 130 131 175 147 60 11 116 192 201 210 271 261 229 224 199 207 189 161 154 144 154 127 95 80 84 82 74 68 79 65 64 55 55 56 48 36 39 32
159 84 69 44 -1 -20 20 34 56 -7 51 98 106 140 151 96 68 130 194 223 268 247 247 252 230 191 196 186 155 157 142 129 108 98 68 83 76 64 68 75 70 64 55 45 52 50 48 50 39
113 90 68 64 60 14 12 38 1 -21 56 79 92 89 118 93 80 74 203 289 256 230 210 254 222 195 185 180 138 125 132 126 108 90 63 71 76 61 69 69 68 66 57 52 57 58 59 54 43
109 68 40 62 67 47 43 1 -22 1 -7 65 121 90 92 83 35 87 137 226 273 199 194 202 219 193 175 152 140 141 119 122 109 94 79 72 69 63 64 70 71 63 64 68 68 79 65 62 56
105 107 63 40 56 53 53 -1 -10 -16 -27 70 146 116 103 73 47 67 100 189 236 205 131 190 211 190 186 169 163 173 138 142 126 109 98 74 72 71 64 70 63 49 64 61 72 75 92 79 63
115 98 99 39 34 56 63 38 -11 4 29 55 108 125 104 105 87 41 58 89 97 115 95 131 220 208 212 194 193 179 156 156 140 129 111 87 75 63 71 73 72 66 88 79 79 97 72 79 79
121 108 114 150 58 5 -5 93 65 52 36 45 56 97 104 85 114 50 54 59 35 56 21 102 173 265 258 257 250 240 214 190 161 134 114 93 87 86 102 96 81 71 86 85 91 108 114 91 105
137 145 153 162 123 75 64 125 189 156 64 8 10 36 69 89 85 63 50 64 87 138 205 116 124 221 317 304 287 264 225 209 185 152 127 127 123 116 111 111 103 93 98 90 90 110 137 155 90
153 138 137 95 102 91 81 183 150 46 29 13 -13 6 30 81 136 120 102 102 83 182 165 373 401 142 265 273 273 264 238 228 196 174 156 138 128 131 142 136 139 129 131 126 95 97 134 178 124
139 199 171 152 97 91 53 48 65 15 31 10 5 5 15 20 52 140 150 146 187 174 249 284 364 179 239 275 316 344 306 282 255 219 192 146 146 138 137 142 140 137 123 117 108 108 112 112 181
114 121 126 129 94 108 89 107 -26 46 87 30 10 2 -5 18 27 68 144 189 217 185 209 313 379 410 204 149 266 220 265 270 244 223 210 193 179 167 159 147 130 127 120 126 132 149 165 146 151
110 106 121 144 126 121 105 121 92 40 1 19 8 4 17 15 13 34 120 112 162 231 152 132 241 324 375 91 112 193 207 299 308 290 257 238 225 194 179 163 155 154 153 183 200 220 208 168 137
116 94 143 159 130 106 99 135 94 67 43 37 32 14 45 57 23 6 102 141 166 209 228 229 176 123 324 368 333 203 177 213 301 287 276 262 249 232 224 205 195 191 178 189 184 144 144 140 128
126 118 67 67 108 107 153 136 134 106 101 109 55 -29 34 34 30 26 91 113 182 236 252 237 241 216 206 241 367 262 190 220 219 283 303 287 305 293 242 218 212 192 146 162 168 184 141 103 94
107 123 113 114 131 143 196 83 80 128 80 56 68 59 25 14 40 57 89 97 174 230 277 260 277 318 355 396 443 441 270 242 285 259 369 337 301 280 213 213 148 135 150 171 134 133 131 112 87
93 102 119 138 169 168 102 120 147 37 52 59 25 42 4 28 31 86 90 90 179 226 244 270 268 296 316 317 393 466 514 267 194 184 228 282 355 270 266 193 156 134 133 131 141 119 112 94 80
128 126 129 145 100 103 188 151 113 50 46 23 25 -1 35 44 29 8 96 86 105 151 220 239 240 193 196 268 349 412 383 217 153 206 186 217 206 186 99 94 153 187 173 137 116 113 99 97 77
142 144 130 143 162 148 142 167 148 147 107 81 95 23 7 28 62 30 40 66 116 159 208 207 225 218 221 228 208 142 73 195 189 263 312 203 129 127 159 179 180 180 156 135 143 122 97 97 90
138 113 159 199 128 207 221 306 162 136 162 232 137 56 1 27 33 53 65 90 134 143 175 209 225 209 161 168 209 209 203 314 307 340 260 203 160 178 193 202 188 173 148 128 121 111 87 81 91
Wind_Speed
52 53 42 39 49 55 68 67 61 53 52 50 47 45 47 53 46 48 29 17 14 26 23 25 28 23 18 13 5 8 6 5 8 10 13 15 17 19 22 26 30 33 37 40 42 44 45 44 43
50 41 35 40 59 74 73 63 72 65 50 52 50 49 56 64 48 38 19 9 17 26 24 25 25 24 18 12 9 5 4 6 6 9 13 15 17 20 23 26 30 34 37 39 42 44 45 45 43
37 35 33 44 61 79 80 67 69 75 75 68 61 49 49 53 51 39 35 8 15 18 23 21 24 23 19 14 9 5 4 4 5 8 12 15 18 21 24 27 30 33 36 39 42 43 44 45 45
34 30 33 52 65 66 76 78 71 73 74 59 59 65 53 52 47 39 15 13 15 17 20 26 23 21 16 12 9 5 3 3 5 8 12 15 18 20 23 25 28 31 34 38 41 42 43 44 45
32 30 47 59 64 62 66 72 80 83 74 74 69 70 64 48 42 29 21 18 18 18 18 22 22 17 15 12 9 6 4 3 3 8 11 14 16 19 21 24 27 31 33 36 39 41 41 43 45
32 29 50 60 63 63 70 70 69 72 73 75 68 68 63 51 34 30 28 25 20 18 18 20 19 16 13 12 9 8 6 4 4 5 10 13 15 18 20 23 27 29 32 35 37 40 40 41 43
31 32 40 50 63 67 62 55 67 73 72 71 67 73 60 52 36 27 32 28 25 22 20 16 17 16 14 11 11 10 8 6 4 5 8 11 14 17 20 22 24 27 30 33 36 37 39 40 42
28 27 34 41 48 65 57 59 60 66 75 66 59 69 68 60 38 30 34 32 30 28 22 19 18 17 16 16 14 13 11 9 6 3 3 5 8 12 15 18 22 26 29 32 34 36 37 39 40
28 30 30 38 37 55 51 59 59 66 73 69 62 71 71 59 46 40 41 39 35 33 27 23 21 19 18 19 18 16 13 12 8 5 2 1 3 7 10 15 20 24 27 31 33 36 37 37 38
25 27 23 28 29 65 66 66 67 69 76 74 70 65 66 53 56 49 46 47 42 36 34 29 25 23 21 23 21 20 18 16 12 8 4 3 4 6 9 12 17 21 25 29 32 35 36 37 37
27 23 23 25 30 65 73 68 57 69 81 74 75 71 65 70 69 55 58 54 48 42 40 37 31 27 27 26 24 23 22 17 14 9 7 3 8 5 7 11 15 19 23 27 30 32 34 36 36
27 17 20 25 32 61 70 62 72 74 84 82 78 70 66 77 81 71 62 60 54 46 43 39 33 32 31 31 29 26 24 21 16 13 11 6 7 6 7 9 13 18 22 26 29 30 32 33 34
26 19 21 13 11 55 72 76 75 77 78 81 80 74 69 70 82 67 60 62 61 54 48 42 35 38 35 34 34 29 26 22 20 15 15 8 6 6 7 8 12 17 21 25 28 29 29 31 31
30 21 15 14 15 21 45 73 55 67 74 76 77 72 72 70 75 74 57 54 61 54 54 45 39 34 36 36 35 33 29 25 22 19 17 12 6 4 5 7 11 17 20 23 25 27 28 28 29
28 27 23 22 34 31 32 57 53 62 60 72 79 75 70 69 69 76 67 67 60 58 55 51 45 40 38 39 38 36 34 28 24 21 19 15 8 5 4 7 11 15 19 23 25 27 28 26 28
35 33 40 24 27 36 33 61 59 58 52 58 70 70 73 66 72 73 69 61 64 60 57 54 50 45 45 45 42 40 39 31 27 22 18 16 12 6 4 6 10 13 17 20 23 25 28 26 26
43 46 36 25 26 29 35 35 59 61 66 73 75 80 80 80 72 71 74 68 57 47 53 62 54 51 46 47 45 41 38 35 28 24 20 16 12 8 4 6 9 13 16 20 21 26 25 26 26
47 46 38 26 24 17 31 26 44 72 73 76 76 77 81 86 87 74 71 67 77 67 59 73 64 53 48 46 46 44 39 37 32 27 23 17 14 10 7 7 9 12 14 17 21 25 27 25 26
36 35 32 22 13 21 8 24 38 68 71 75 76 77 82 88 82 78 73 61 58 59 57 63 57 63 51 47 51 50 47 40 35 31 26 22 18 12 9 8 10 13 15 16 19 24 28 27 24
34 34 31 28 26 27 14 20 17 34 55 68 75 77 77 79 83 72 70 59 53 47 52 56 53 56 59 53 50 50 47 44 38 33 30 24 20 16 12 10 11 13 15 17 19 23 27 32 30
32 32 30 32 33 25 29 17 18 18 46 51 61 68 73 75 83 74 66 64 54 48 48 48 58 53 58 54 54 47 44 42 42 37 32 27 21 18 14 12 11 12 15 17 21 23 26 27 36
37 34 33 33 43 38 37 24 17 27 50 51 55 59 69 69 76 73 65 66 60 57 46 41 46 46 56 50 57 62 54 52 48 39 32 27 24 21 17 13 12 12 14 19 24 25 26 26 26
32 37 34 35 31 35 35 32 18 19 36 56 56 53 60 65 69 75 58 67 62 53 51 48 44 48 42 65 60 62 63 57 45 39 35 28 25 22 17 16 15 16 17 19 22 27 28 29 29
35 39 39 37 39 40 35 37 22 19 26 50 63 63 61 59 64 71 57 50 58 56 54 48 47 47 46 51 57 67 63 61 49 43 37 32 26 23 20 19 17 16 17 20 21 22 25 28 29
38 48 51 44 45 42 38 34 18 8 5 6 15 65 64 59 56 62 59 53 54 54 49 50 48 49 42 57 45 62 58 56 53 47 41 35 31 27 23 20 20 18 17 18 20 21 23 27 30
39 40 43 48 46 45 40 29 33 25 15 15 16 10 62 60 56 58 57 53 52 51 45 46 43 43 40 52 38 56 52 50 48 45 39 35 30 26 19 16 15 14 16 20 19 21 25 29 33
39 38 37 41 42 41 35 30 21 30 28 34 33 21 59 56 47 50 52 45 45 48 48 43 40 38 38 38 38 39 53 45 47 39 36 29 25 22 17 14 18 16 11 14 18 23 27 29 34
34 32 41 40 50 50 38 41 26 35 24 32 39 29 23 49 39 40 44 42 46 41 40 40 39 38 35 37 34 26 38 48 42 38 33 29 29 19 12 6 2 7 12 18 17 22 27 31 36
40 41 35 37 34 47 46 45 36 19 22 17 25 30 24 32 10 44 43 49 44 43 39 40 40 37 35 32 31 28 35 34 33 39 34 23 10 10 9 4 6 10 15 16 20 26 30 34 37
36 36 30 43 48 37 47 24 28 28 21 27 24 20 26 26 15 47 49 43 41 41 37 38 40 40 33 28 29 31 37 29 28 30 27 12 16 8 12 6 8 11 16 19 26 31 34 37 41
Wind_Direction
327 317 310 295 281 279 272 271 274 273 273 274 276 275 273 270 270 270 302 298 121 138 142 139 134 128 125 125 126 104 82 48 54 39 30 28 29 27 27 32 38 42 44 46 49 51 49 42 40
338 332 321 297 277 269 272 276 268 265 273 280 278 278 270 265 270 280 293 289 135 135 143 141 137 131 127 129 121 120 83 66 53 36 38 39 37 34 35 39 43 46 46 49 53 54 51 50 40
358 347 324 300 282 270 271 273 273 266 267 271 272 277 275 266 267 271 279 185 145 146 144 147 140 134 131 130 131 134 105 78 52 43 48 47 45 45 45 45 46 45 46 50 55 54 52 52 44
2 355 335 298 285 284 273 270 272 270 265 269 272 268 273 269 269 262 246 185 161 154 153 144 145 139 137 138 144 151 135 100 68 60 57 56 52 49 46 44 43 42 46 51 55 55 51 48 46
9 358 318 302 291 287 280 275 270 265 263 261 268 260 265 271 268 254 220 201 178 168 163 154 153 153 147 145 157 168 152 137 93 73 66 59 56 51 47 43 43 46 45 46 52 55 50 47 47
6 2 324 307 294 289 281 279 274 266 261 263 262 261 261 263 263 244 222 214 198 191 177 163 164 166 168 156 178 189 181 170 114 84 75 66 60 54 50 49 48 44 42 45 51 54 46 43 49
5 353 332 317 301 289 288 291 270 264 263 256 263 255 258 256 256 237 224 217 218 211 202 182 179 179 190 185 195 202 195 180 162 105 82 72 64 60 55 49 43 40 38 42 51 49 46 42 51
18 4 340 329 311 292 293 287 283 271 259 266 260 250 251 254 247 233 221 217 224 219 217 208 196 202 210 217 210 212 207 203 199 160 101 68 54 49 44 33 38 39 40 42 47 44 45 43 51
22 358 339 334 326 298 300 289 285 273 261 261 255 255 258 255 240 228 220 224 226 223 219 213 204 204 209 219 218 216 210 210 204 200 179 94 23 17 14 21 35 35 43 42 48 46 48 45 49
20 2 353 344 338 291 291 290 284 270 258 254 255 262 264 243 235 230 217 222 222 217 222 219 212 209 211 224 219 222 220 220 216 208 200 248 298 329 5 17 27 32 36 39 44 45 48 47 52
25 1 353 333 328 299 286 287 288 270 253 250 253 261 261 241 235 231 225 224 223 222 224 226 220 219 222 222 220 222 224 216 214 212 225 255 279 327 352 8 18 26 33 36 40 42 44 48 54
12 356 342 339 335 306 285 292 275 265 253 253 257 265 259 241 236 237 228 228 225 223 224 224 221 221 227 227 225 221 219 217 217 224 236 247 272 299 334 5 12 29 34 39 37 38 39 41 46
10 9 360 334 275 257 282 271 272 262 259 256 257 260 257 249 240 245 240 234 230 227 227 222 221 225 226 226 229 223 219 218 224 229 242 242 263 288 313 342 11 27 35 41 43 40 34 31 35
26 8 333 341 252 225 275 275 291 270 262 256 251 254 258 251 245 244 243 237 231 227 227 221 220 223 227 226 226 225 223 222 227 234 238 245 257 295 311 348 18 32 33 33 33 34 34 30 33
14 15 17 42 18 8 355 300 290 275 269 257 252 256 255 253 249 246 244 241 230 228 225 223 222 225 226 227 226 225 228 227 226 232 238 245 254 277 316 4 15 29 33 38 36 24 25 34 29
27 34 26 39 24 6 5 305 285 278 272 268 256 255 253 255 250 247 246 241 242 228 223 224 224 225 228 229 227 228 233 230 229 230 235 243 252 266 304 352 9 16 27 34 33 22 15 21 25
29 20 22 27 27 22 5 262 289 278 271 265 259 253 252 251 253 250 247 245 245 248 235 230 224 224 226 229 229 230 231 232 231 232 236 239 248 259 292 337 356 5 18 25 23 12 11 10 10
17 20 26 20 29 341 262 257 253 274 266 260 259 256 253 250 249 254 252 253 251 253 251 239 231 223 224 227 231 232 231 233 235 238 239 239 246 260 282 314 338 348 11 25 20 14 14 12 11
21 21 15 7 12 17 320 269 259 266 265 257 259 258 256 252 256 257 255 255 258 257 254 242 247 231 219 223 228 231 232 233 238 241 243 246 251 259 273 297 322 335 351 10 17 9 7 0 7
24 20 18 27 31 19 343 285 252 244 280 264 261 261 260 257 255 260 255 255 255 254 250 246 247 237 233 228 231 235 234 239 239 242 246 249 252 260 270 287 309 331 345 357 359 356 352 350 346
21 20 22 22 21 38 30 71 53 55 311 292 277 269 264 261 255 257 258 253 252 251 252 246 242 245 243 240 233 233 236 237 240 242 246 250 253 260 267 282 300 323 341 354 353 351 343 342 344
14 30 25 22 23 31 37 41 57 41 292 301 293 282 269 266 259 259 258 252 249 249 250 243 239 233 242 246 239 236 233 236 242 241 244 249 253 259 267 278 295 315 341 346 343 345 345 339 343
14 17 13 13 20 28 41 40 47 54 19 319 307 303 285 273 263 258 260 254 247 245 243 244 241 239 240 242 241 242 244 241 239 239 241 245 252 258 265 276 289 307 330 341 349 346 340 341 344
7 6 9 21 23 27 36 36 39 55 40 338 315 299 297 286 270 262 264 255 248 245 243 244 243 242 239 229 248 241 243 240 234 237 240 245 249 257 268 278 291 309 327 332 356 3 354 347 344
7 2 3 13 14 16 28 29 34 12 330 319 280 301 298 293 279 263 259 255 250 242 242 241 242 244 243 234 238 234 240 241 240 234 238 239 246 256 268 279 287 301 316 340 347 356 353 351 345
359 5 3 359 5 1 11 31 31 34 24 26 23 16 301 299 284 265 259 255 252 244 240 242 238 239 232 234 227 227 230 238 242 243 238 240 246 258 264 278 287 303 319 321 336 347 342 340 338
357 358 5 357 1 6 13 16 7 42 41 27 29 35 312 308 303 270 259 257 252 246 243 238 232 228 222 216 216 219 225 229 239 237 237 244 252 253 258 270 283 288 314 326 332 333 335 344 343
349 1 351 356 350 353 4 358 12 15 17 21 25 29 24 339 331 285 261 259 254 248 241 237 233 230 223 222 224 220 221 217 224 230 228 239 245 244 244 235 251 317 313 312 355 345 345 342 340
339 338 345 349 353 345 352 359 7 357 1 5 13 15 18 2 6 289 273 264 261 255 246 236 231 229 228 223 215 210 203 208 206 227 229 227 201 169 214 221 289 314 313 353 345 336 339 337 337
339 337 339 333 338 341 336 319 358 358 358 355 341 347 5 10 15 284 265 267 265 253 245 236 233 226 225 221 220 214 220 214 176 212 216 192 144 196 237 266 309 333 331 340 334 337 337 333 332